Regional Weather Roundup
Issued by NWS Albany, NY

Home | Current Version | Previous Version | Text Only | Print | Product List | Glossary Off
Versions: 1 2 3 4 5 6 7 8 9 10 11 12 13 14 15 16 17 18 19 20 21 22 23 24 25 26 27

000
ASUS41 KALY 281510
RWRALY

NEW YORK STATE HOURLY WEATHER ROUNDUP
NATIONAL WEATHER SERVICE ALBANY NY
1100 AM EDT FRI JUL 28 2017

NOTE: "FAIR" INDICATES FEW OR NO CLOUDS BELOW 12,000 FEET WITH NO
SIGNIFICANT WEATHER AND/OR NO OBSTRUCTIONS TO VISIBILITY.

NYZ032-033-038>043-046>054-057>066-NYZ062>081-082-084-281600-
EAST


CITY           SKY/WX    TMP DP  RH WIND       PRES   REMARKS
ALBANY         CLOUDY    72  59  63 NE9       29.91S
GLENS FALLS    CLOUDY    69  57  65 E8        29.92S
POUGHKEEPSIE   MOSUNNY   75  65  70 N7        29.87S
NEWBURGH       CLOUDY    72  70  94 VRB6      29.90S
MONTGOMERY     CLOUDY    75  66  73 N3        29.88S
WHITE PLAINS   CLOUDY    78  63  59 NE6       29.87S
ISLIP          CLOUDY    81  69  67 N6        29.85S
NEW YORK CITY  PTSUNNY   78  70  76 NE7       29.85S
CENTRAL PARK   PTSUNNY   77  68  73 CALM      29.88S
$$

NYZ005>009-017-018-044>046-055-056-281600-
CENTRAL


CITY           SKY/WX    TMP DP  RH WIND       PRES   REMARKS
FULTON         MOSUNNY   72  62  71 N9        29.95S
SYRACUSE       CLOUDY    71  62  73 N6        29.93S
ROME           MOSUNNY   72  62  71 N6        29.94R
ELMIRA         CLOUDY    73  65  75 NE7       29.92S
BINGHAMTON     PTSUNNY   70  63  78 N6        29.94S
$$

NYZ026>034-041>043-087-281600-
NORTH


CITY           SKY/WX    TMP DP  RH WIND       PRES   REMARKS
WATERTOWN      MOSUNNY   69  56  62 N8        29.96F
FORT DRUM      NOT AVBL
OGDENSBURG     FAIR      69  53  56 N5        29.97S
MASSENA        SUNNY     67  55  65 N8        29.97S
SARANAC LAKE   CLOUDY    65  53  65 VRB5      29.95S
PLATTSBURGH    MOSUNNY   69  55  60 NE10      29.92F
$$

NYZ001>004-010>016-019>021-085-281600-
WEST


CITY           SKY/WX    TMP DP  RH WIND       PRES   REMARKS
NIAGARA FALLS  CLOUDY    70  58  65 NE16      29.97R
BUFFALO        CLOUDY    70  61  73 NE12      29.96R
DUNKIRK        CLOUDY    72  64  76 NE13      29.93S
JAMESTOWN      CLOUDY    66  61  82 E8        29.95S
WELLSVILLE     CLOUDY    70  62  76 N8        29.98S
ROCHESTER      CLOUDY    69  60  73 NE15      29.97R
PENN YAN       PTSUNNY   70  61  73 N6        29.96R
$$

             KEY
       WCI = WIND CHILL INDEX
       VSB = VISIBILITY
       HX  = HEAT INDEX
$$




USA.gov is the U.S. government's official web portal to all federal, state and local government web resources and services.